Location: Poughquag
(41.6090°N, 73.6820°W)
Time: 05:53:53
(UTC-04:00)

STRAND 1 - Visible Passes

Search period start: 08 September 2024 00:00
Search period end: 18 September 2024 00:00
Orbit: 764 x 777 km, 98.4° (Epoch: 07 September)

Date Brightness Start Highest point End Pass type
(mag) Time Alt. Az. Time Alt. Az. Time Alt. Az.
08 Sep ? 05:35:20 10° SE 05:39:51 33° ENE 05:44:23 10° N visible
08 Sep ? 21:04:53 10° NW 21:06:38 12° WNW 21:08:22 10° WNW visible
09 Sep ? 05:01:54 10° E 05:05:06 17° ENE 05:08:17 10° NNE visible
09 Sep ? 20:27:58 10° NNW 20:31:58 23° WNW 20:35:58 10° WSW visible
10 Sep ? 19:52:13 10° N 19:57:07 47° WNW 20:02:01 10° SW visible
11 Sep ? 05:29:18 10° SE 05:33:40 30° ENE 05:38:03 10° N visible
11 Sep ? 20:58:06 10° NNW 21:00:29 13° WNW 21:02:51 10° W visible
12 Sep ? 04:56:07 10° E 04:58:55 15° ENE 05:01:45 10° NNE visible
12 Sep ? 20:21:34 10° N 20:25:47 26° WNW 20:30:00 10° WSW visible
13 Sep ? 05:57:25 10° SSE 06:02:20 54° ENE 06:07:18 10° N visible
13 Sep ? 19:45:53 10° N 19:50:53 54° WNW 19:55:52 10° SSW visible
14 Sep ? 05:23:17 10° ESE 05:27:27 26° ENE 05:31:39 10° N visible
14 Sep ? 20:51:27 10° NNW 20:54:18 15° WNW 20:57:09 10° W visible
15 Sep ? 04:50:23 10° E 04:52:44 13° ENE 04:55:06 10° NNE visible
15 Sep ? 20:15:09 10° N 20:19:33 30° WNW 20:23:58 10° SW visible
16 Sep ? 05:51:15 10° SE 05:56:05 47° ENE 06:00:58 10° N visible
16 Sep ? 19:39:33 10° N 19:44:38 61° WNW 19:49:40 10° SSW visible
17 Sep ? 05:17:15 10° ESE 05:21:13 23° ENE 05:25:12 10° NNE visible
17 Sep ? 20:44:51 10° NNW 20:48:05 17° WNW 20:51:19 10° W visible
